CAPE
0 0 0 0 0 0 0 0 0 0 0 0 0 0 0 0 0 0 0 0 0 0 0 0 0 0 0 0 0 0 0 0 0 0 0 0 0 0 0 0 0 0 0 0 0
0 0 0 0 0 0 0 0 0 0 0 0 0 0 0 0 0 0 0 0 0 0 0 0 0 0 0 0 0 0 0 0 0 0 0 0 0 0 0 0 0 0 0 0 0
0 0 0 0 0 0 0 0 0 0 0 0 0 0 0 0 0 0 0 0 0 0 0 0 0 0 0 0 0 0 0 0 0 0 0 0 0 0 0 0 0 0 0 0 0
0 0 0 0 0 0 0 0 0 0 0 0 0 0 0 0 0 0 0 0 0 0 0 0 0 0 0 0 0 0 0 0 0 0 0 0 0 0 0 0 0 0 0 0 0
0 0 0 0 0 0 0 0 0 0 0 0 0 0 0 0 0 0 0 0 0 0 0 0 0 0 0 0 0 0 0 0 0 0 0 0 0 0 0 0 0 0 0 0 0
0 0 0 0 0 0 0 0 0 0 0 0 0 0 0 0 0 0 0 0 0 0 0 0 0 0 0 0 0 0 0 0 0 0 0 0 0 0 0 0 0 0 0 0 0
0 0 0 0 0 0 0 0 0 0 0 0 0 0 0 0 0 0 0 0 0 0 0 0 0 0 0 0 0 0 0 0 0 0 0 0 0 0 0 0 0 0 0 0 0
0 0 0 0 0 0 0 0 0 0 0 0 0 0 0 0 0 0 0 0 0 0 0 0 0 0 0 0 0 0 0 0 0 0 0 0 0 0 0 0 0 0 0 0 0
0 0 0 0 0 0 0 0 0 0 0 0 0 0 0 0 0 0 0 0 0 0 0 0 0 0 0 0 0 0 0 0 0 0 0 0 0 2 0 0 0 0 3 9 1
0 0 0 0 0 0 0 0 0 0 0 0 0 0 0 0 0 0 0 0 0 0 0 0 0 0 0 0 0 0 0 0 0 0 0 0 0 16 1 0 0 0 1 4 9
0 0 0 0 0 0 0 0 0 0 0 0 0 0 0 0 0 0 0 0 0 0 0 0 0 0 0 0 0 0 0 0 0 0 0 0 0 0 18 8 0 0 10 3 9
0 0 0 0 0 0 0 0 0 0 0 0 0 0 0 0 0 0 0 0 0 0 0 0 0 0 0 0 0 0 0 0 0 0 0 0 0 0 0 14 0 0 0 2 0
0 0 0 0 0 0 0 0 0 0 0 0 0 0 0 0 0 0 0 0 0 0 0 0 0 0 0 0 0 0 0 0 0 0 0 0 0 0 7 2 0 11 26 2 11
0 0 0 0 0 0 0 0 0 0 0 0 0 0 0 0 0 0 0 0 0 0 0 0 0 0 0 0 0 0 0 0 0 0 0 0 0 0 14 9 7 17 82 61 28
0 0 0 0 0 0 0 0 0 0 0 0 0 0 0 0 0 0 0 0 0 0 0 0 0 0 0 0 0 0 0 0 0 0 0 0 0 17 76 191 5 0 119 75 5
0 0 0 0 0 0 0 0 0 0 0 0 0 0 0 0 0 0 0 0 0 0 0 0 0 0 0 0 0 0 0 0 0 0 0 3 12 125 183 149 60 155 89 0 2
0 0 0 0 0 0 0 0 0 0 1 0 0 0 0 0 0 0 0 0 0 0 0 0 0 0 0 0 0 0 0 0 0 4 3 17 23 141 152 108 79 25 0 2 0
0 0 0 0 0 0 0 0 0 0 0 0 0 0 0 0 0 0 0 0 0 0 0 0 0 0 0 0 0 0 0 0 0 0 0 0 0 41 9 14 20 3 2 0 0
0 0 0 0 0 0 0 0 0 0 0 0 0 0 0 0 0 0 0 0 0 0 0 0 0 0 0 0 0 0 1 0 0 0 0 0 20 11 5 15 25 30 0 12 11
0 0 0 0 0 0 0 0 0 0 0 0 0 0 0 0 0 0 0 0 0 0 0 0 0 0 0 0 0 0 0 0 41 0 0 0 5 105 37 27 43 29 26 10 10
0 0 0 0 0 0 0 0 0 0 0 0 0 0 0 0 4 0 0 0 0 0 0 0 0 0 0 0 0 0 0 0 0 0 3 0 0 11 32 35 61 41 35 15 7
0 0 0 0 0 0 0 0 0 0 0 0 0 0 0 0 0 0 0 0 0 0 0 0 0 0 0 0 0 0 0 1 1 0 45 21 4 7 68 8 51 52 28 9 3
0 0 0 0 0 0 0 0 0 2 0 0 0 0 0 0 0 0 0 0 0 0 0 0 0 0 0 0 0 0 0 0 0 3 0 8 0 28 48 27 20 10 1 0 0
0 0 0 0 0 0 0 5 45 3 0 0 0 0 0 0 0 0 0 0 0 0 0 0 0 0 0 0 0 5 6 0 0 0 5 15 28 64 48 6 32 11 0 0 2
0 0 0 1 3 0 0 0 6 38 0 0 0 0 0 0 0 0 0 1 0 0 0 0 0 0 0 0 0 0 0 0 0 0 8 10 22 59 24 15 1 0 0 0 3
0 0 0 0 0 0 0 0 0 4 2 0 0 0 0 3 0 4 0 0 11 0 0 0 0 0 0 0 0 0 0 0 0 0 0 0 20 0 8 13 0 0 0 0 6
0 0 0 0 0 0 0 0 0 0 0 0 0 0 1 4 12 5 0 0 0 0 3 4 0 0 0 0 0 0 0 0 0 8 12 3 1 20 0 0 0 0 0 7 18
CIN
0 0 0 0 0 0 0 0 0 0 0 0 0 0 0 0 0 0 0 0 0 0 0 0 0 0 0 0 0 0 0 0 0 0 0 0 0 0 0 0 0 0 0 0 0
0 0 0 0 0 0 0 0 0 0 0 0 0 0 0 0 0 0 0 0 0 0 0 0 0 0 0 0 0 0 0 0 0 0 0 0 0 0 0 0 0 0 0 0 0
0 0 0 0 0 0 0 0 0 0 0 0 0 0 0 0 0 0 0 0 0 0 0 0 0 0 0 0 0 0 0 0 0 0 0 0 0 0 0 0 0 0 0 0 0
0 0 0 0 0 0 0 0 0 0 0 0 0 0 0 0 0 0 0 0 0 0 0 0 0 0 0 0 0 0 0 0 0 0 0 0 0 0 0 0 0 0 0 0 0
0 0 0 0 0 0 0 0 0 0 0 0 0 0 0 0 0 0 0 0 0 0 0 0 0 0 0 0 0 0 0 0 0 0 0 0 0 0 0 0 0 0 0 0 0
0 0 0 0 0 0 0 0 0 0 0 0 0 0 0 0 0 0 0 0 0 0 0 0 0 0 0 0 0 0 0 0 0 0 0 0 0 0 0 0 0 0 0 0 0
0 0 0 0 0 0 0 0 0 0 0 0 0 0 0 0 0 0 0 0 0 0 0 0 0 0 0 0 0 0 0 0 0 0 0 0 0 0 0 0 0 0 0 0 0
0 0 0 0 0 0 0 0 0 0 0 0 0 0 0 0 0 0 0 0 0 0 0 0 0 0 0 0 0 0 0 0 0 0 0 0 0 0 0 0 0 0 0 0 0
0 0 0 0 0 0 0 0 0 0 0 0 0 0 0 0 0 0 0 0 0 0 0 0 0 0 0 0 0 0 0 0 0 0 0 0 0 -28 0 0 0 0 -1 -7 -1
0 0 0 0 0 0 0 0 0 0 0 0 0 0 0 0 0 0 0 0 0 0 0 0 0 0 0 0 0 0 0 0 0 0 0 0 0 -15 -16 0 0 0 -1 -1 -2
0 0 0 0 0 0 0 0 0 0 0 0 0 0 0 0 0 0 0 0 0 0 0 0 0 0 0 0 0 0 0 0 0 0 0 0 0 0 -15 -22 0 0 -2 -3 -4
0 0 0 0 0 0 0 0 0 0 0 0 0 0 0 0 0 0 0 0 0 0 0 0 0 0 0 0 0 0 0 0 0 0 0 0 0 0 0 -13 0 0 0 -2 -0
0 0 0 0 0 0 0 0 0 0 0 0 0 0 0 0 0 0 0 0 0 0 0 0 0 0 0 0 0 0 0 0 0 0 0 0 0 0 -8 -14 0 -63 -79 -0 -3
0 0 0 0 0 0 0 0 0 0 0 0 0 0 0 0 0 0 0 0 0 0 0 0 0 0 0 0 0 0 0 0 0 0 0 0 0 0 -13 -34 -32 -3 -4 -2 -1
0 0 0 0 0 0 0 0 0 0 0 0 0 0 0 0 0 0 0 0 0 0 0 0 0 0 0 0 0 0 0 0 0 0 0 0 0 -3 -29 -76 -38 0 -6 -3 -3
0 0 0 0 0 0 0 0 0 0 0 0 0 0 0 0 0 0 0 0 0 0 0 0 0 0 0 0 0 0 0 0 0 0 0 -2 -13 -3 -19 -84 -127 -22 -5 -1 -2
0 0 0 0 0 0 0 0 0 0 -0 0 0 0 0 0 0 0 0 0 0 0 0 0 0 0 0 0 0 0 0 0 0 -7 -17 -22 -8 -28 -35 -35 -31 -45 0 -24 0
0 0 0 0 0 0 0 0 0 0 -4 0 0 0 0 0 0 0 0 0 0 0 0 0 0 0 0 0 0 0 0 0 0 0 -0 0 0 -53 -30 -43 -31 -26 -30 0 0
0 0 0 0 0 0 0 0 0 0 -0 0 0 0 0 0 0 0 0 0 0 0 0 0 0 0 0 0 0 -0 -1 0 0 0 0 0 -50 -41 -108 -106 -58 -42 -3 -5 -3
0 0 0 0 0 0 0 0 0 0 0 0 0 0 0 0 0 0 0 0 0 0 0 0 0 0 0 0 0 0 0 0 -12 0 0 0 -8 -13 -31 -47 -37 -11 -5 -12 -3
0 0 0 0 0 0 0 0 0 0 0 0 0 0 0 0 -2 0 0 0 0 0 0 0 0 0 0 0 0 0 0 0 0 0 -1 -0 0 -8 -13 -34 -22 -3 -10 -18 -3
0 0 0 0 0 0 0 0 0 -0 0 0 0 0 0 0 0 0 0 0 0 0 0 0 0 0 0 0 0 0 0 -0 -0 -0 -6 -2 -45 -19 -6 -11 -31 -10 -6 -3 -13
0 0 0 0 0 0 0 0 0 -6 0 0 0 0 0 0 0 0 0 0 0 0 0 0 0 0 0 0 0 0 0 0 0 -1 0 -2 0 -9 -10 -11 -17 -20 -16 0 0
0 0 0 0 0 0 0 -48 -4 -2 0 0 0 0 0 0 0 0 0 0 0 0 0 0 0 0 0 -7 0 -5 -1 0 0 0 -2 -4 -3 -3 -18 -16 -16 -30 0 0 -1
0 0 0 -3 -0 -0 0 0 -9 -7 -1 0 0 0 0 0 0 0 0 -2 0 0 0 0 0 0 0 0 0 0 0 0 0 0 -2 -2 -3 -20 -36 -31 -23 0 0 0 -6
0 0 0 0 0 0 0 0 0 -30 -19 0 0 0 0 -2 0 -2 -1 -2 -2 0 0 0 0 0 0 0 0 0 0 0 0 0 0 0 -3 -1 -66 -3 -0 0 0 0 -11
0 0 0 0 0 0 0 0 0 -1 0 -2 -2 0 -8 -4 -11 -18 0 0 0 -4 -3 -6 -0 0 0 0 0 0 0 0 0 -5 -14 -18 -16 -4 0 0 0 0 0 -10 0
Wind_Speed
23 23 22 22 21 20 20 19 19 19 19 18 18 17 18 19 18 12 16 16 18 18 18 18 10 12 11 17 11 22 26 25 25 10 14 12 17 14 20 20 16 16 16 17 20
24 23 23 23 23 22 21 21 20 20 20 19 19 18 19 20 18 16 14 16 18 18 19 14 8 14 8 14 14 10 8 26 22 18 16 15 18 16 19 14 17 16 15 16 20
24 24 23 22 22 22 21 21 21 20 20 19 19 19 20 20 16 11 14 15 13 17 16 13 17 17 20 14 9 13 13 24 19 19 18 18 17 16 18 18 19 19 19 21 21
27 26 25 24 23 23 22 21 21 21 21 20 20 21 21 15 18 14 13 14 12 13 16 16 12 16 16 12 12 18 16 21 18 17 19 19 18 18 17 17 19 19 20 21 22
29 28 26 25 24 23 22 22 22 22 22 21 21 21 18 10 8 14 13 12 10 13 12 19 20 14 13 14 16 14 17 15 16 17 15 18 17 15 13 17 17 17 18 19 21
30 30 28 25 24 22 21 20 20 20 20 22 20 20 12 6 14 13 12 11 10 10 17 19 18 19 20 16 16 20 19 14 14 15 13 16 13 13 13 13 14 16 19 19 20
32 32 30 27 24 21 19 19 18 16 13 10 15 15 8 18 13 12 11 15 19 11 19 16 19 15 21 10 12 16 15 12 12 13 14 16 14 10 11 12 14 15 16 17 20
34 34 32 29 26 23 18 16 16 13 9 10 12 12 15 14 16 10 13 10 16 13 12 14 12 12 11 19 13 12 10 11 4 11 12 17 21 4 9 13 16 17 17 19 19
36 36 34 31 28 24 22 19 9 13 11 11 11 10 9 12 11 14 17 17 17 14 14 14 11 9 10 9 8 9 13 10 9 8 14 16 20 8 9 14 18 18 16 17 22
37 36 35 32 27 24 22 16 16 15 11 10 8 13 5 11 12 15 15 17 18 16 12 12 11 10 7 10 23 20 18 15 12 10 12 15 16 8 9 14 17 16 17 19 20
38 38 36 32 27 24 21 16 16 15 6 7 14 9 12 13 12 12 14 15 16 13 18 16 12 17 20 19 18 12 12 15 13 12 18 18 17 17 8 11 14 13 12 18 21
38 38 36 32 27 24 19 16 21 22 25 5 5 4 10 9 12 13 14 14 16 22 15 13 10 17 19 14 14 13 13 12 10 12 13 14 14 12 10 6 10 10 15 18 22
39 38 36 33 28 19 10 21 23 22 19 7 3 2 5 6 11 11 15 19 18 19 18 19 16 17 17 12 13 10 12 14 16 15 14 10 12 7 3 7 11 13 15 15 15
39 38 36 35 21 25 18 21 22 20 20 5 2 6 4 5 11 11 15 18 15 19 20 17 16 15 15 15 15 15 20 14 13 13 15 23 22 16 4 6 7 14 16 17 19
40 39 37 32 25 20 23 24 23 14 20 10 4 8 4 3 11 8 13 15 16 20 16 18 14 15 12 15 16 9 20 13 9 10 10 10 13 19 13 14 12 10 13 13 25
42 40 38 24 19 16 23 22 16 15 18 9 6 5 3 4 10 10 15 10 19 19 12 17 16 12 15 16 11 13 12 8 3 6 12 15 8 12 12 10 8 6 11 22 28
44 42 37 25 14 21 23 17 15 15 14 10 10 4 1 4 7 10 13 11 14 17 13 10 10 11 12 14 7 10 11 18 18 8 10 7 12 16 12 11 13 15 20 26 30
46 43 30 17 20 22 20 14 18 17 19 12 11 7 5 3 7 8 14 18 14 16 22 19 14 6 10 15 17 16 17 16 16 19 15 20 17 12 15 15 14 17 24 28 30
45 33 30 20 13 17 15 14 12 16 23 16 13 15 9 9 11 11 13 16 17 11 18 22 14 10 12 13 13 13 18 16 17 16 17 13 18 14 17 18 19 24 28 29 31
38 33 27 20 9 13 17 17 23 17 23 18 18 15 15 9 10 13 15 13 13 15 17 19 18 10 9 13 9 8 16 15 15 19 19 20 21 17 11 17 15 22 27 28 31
28 26 14 9 11 16 20 21 21 20 17 18 18 18 16 21 14 14 15 12 10 13 14 22 15 12 12 11 10 9 10 11 15 17 20 21 18 21 16 13 21 24 29 28 35
25 23 12 14 18 20 23 24 28 29 15 18 20 23 22 18 20 16 22 22 7 11 14 13 17 15 13 14 14 20 17 16 18 20 17 16 17 19 17 21 20 20 23 32 35
27 29 28 18 26 25 28 29 29 26 20 19 20 19 20 21 22 20 19 12 10 13 17 17 16 18 16 15 13 16 14 12 14 16 17 18 20 17 17 22 24 25 32 35 38
23 23 17 18 25 32 33 32 32 21 25 19 21 20 20 20 21 20 17 13 14 14 15 18 19 19 17 25 21 18 15 16 17 20 19 15 17 17 18 22 24 30 34 37 37
18 22 24 24 22 27 30 30 31 24 18 20 20 22 19 20 20 17 22 14 12 12 16 17 21 21 24 28 27 26 25 23 20 17 17 17 18 25 24 23 26 30 37 38 38
25 27 30 34 32 31 28 28 31 31 28 21 23 23 20 22 21 22 19 17 14 10 13 16 23 24 27 28 30 30 26 23 19 19 16 15 21 20 18 15 28 35 36 36 38
27 29 29 28 30 31 28 30 31 32 32 22 27 22 22 20 21 18 16 18 19 18 14 15 18 22 25 27 30 28 23 18 15 16 19 23 18 21 25 30 35 33 34 38 38
Wind_Direction
326 323 318 313 306 298 289 284 279 275 269 264 262 260 271 281 265 37 346 348 329 296 276 231 95 151 132 177 333 267 251 231 240 308 337 348 314 328 320 316 327 330 338 333 328
323 317 313 310 306 300 292 283 278 273 267 264 261 258 275 288 255 214 24 9 319 277 270 224 261 334 354 322 324 328 337 289 314 330 328 345 314 334 323 323 320 320 332 334 330
323 315 307 301 296 289 284 278 273 268 262 257 253 253 274 280 228 34 36 16 29 229 214 251 321 316 296 326 343 328 308 316 323 316 321 332 336 326 325 324 326 323 330 334 330
328 320 310 302 294 287 278 271 265 264 261 256 255 267 268 360 336 17 33 34 141 197 230 275 7 321 329 341 337 313 319 316 329 335 315 318 326 326 321 333 334 332 330 330 330
330 324 314 303 296 286 279 274 269 266 267 263 277 300 319 56 10 32 49 76 133 194 27 318 307 341 340 336 335 335 325 333 334 334 337 327 325 327 335 337 337 338 335 337 330
329 325 318 306 296 283 272 263 257 255 254 283 310 307 25 155 12 38 77 63 137 289 339 317 330 315 306 328 329 325 324 339 339 336 345 335 334 334 339 353 347 345 342 340 342
328 326 320 310 299 282 264 257 244 224 195 141 351 341 95 333 7 35 79 2 324 7 282 1 310 356 325 26 5 342 338 342 339 343 343 349 327 330 354 359 351 346 346 342 339
329 326 322 313 303 287 262 244 232 201 117 64 21 17 -0 356 307 79 15 81 16 34 49 13 33 16 16 345 5 8 5 338 11 3 354 350 327 341 356 347 338 334 338 334 341
328 327 324 318 308 298 288 270 63 46 66 57 44 52 358 26 50 351 268 330 352 30 27 24 53 49 28 37 28 14 2 7 10 16 4 354 334 6 355 339 334 333 337 341 334
328 326 325 321 314 307 311 8 4 13 50 79 123 353 55 15 14 347 353 326 331 349 26 42 38 39 73 18 333 342 351 3 3 20 19 354 336 339 341 335 339 337 339 340 342
326 326 324 321 313 309 325 2 1 3 84 54 349 7 18 4 5 18 353 344 353 6 334 2 9 351 337 350 358 14 12 356 2 10 354 346 341 335 346 342 349 343 352 339 340
322 323 321 316 302 300 343 348 337 325 317 177 17 59 11 23 0 350 1 348 339 314 357 11 22 357 353 12 17 27 16 11 20 7 2 351 342 336 335 339 4 8 353 348 341
320 318 317 310 296 338 26 333 327 330 324 346 28 19 17 32 350 358 343 326 324 320 337 327 349 1 3 25 24 34 20 12 8 7 356 333 337 335 317 28 6 358 353 3 0
316 314 313 309 338 314 337 337 332 341 325 333 46 355 63 15 334 345 340 328 332 325 327 337 6 359 6 6 14 15 14 23 17 6 356 353 342 342 11 21 23 356 346 5 4
313 311 308 313 319 331 324 319 323 356 327 54 57 11 33 15 360 358 345 335 326 319 338 344 357 0 7 1 8 23 9 16 16 6 2 7 0 1 48 14 9 17 346 3 351
309 305 310 326 330 327 318 318 334 329 320 3 37 14 5 331 331 354 340 351 321 325 340 332 355 4 353 353 15 12 15 20 8 18 3 14 33 25 16 14 21 20 359 348 345
306 297 301 314 320 317 315 323 322 317 351 340 339 0 333 335 327 328 329 333 328 323 327 345 352 15 8 358 34 26 9 2 15 16 5 43 18 4 27 44 27 5 351 347 344
303 294 304 311 304 303 308 314 302 315 323 344 342 335 313 303 329 321 319 313 321 321 312 315 324 15 25 353 348 2 4 8 13 8 360 353 0 16 22 19 7 5 349 347 345
304 308 298 302 303 296 299 289 289 306 319 329 327 317 308 306 311 321 312 309 323 337 317 318 322 4 354 352 2 9 2 18 1 0 1 14 13 29 11 4 2 349 343 344 344
308 305 299 295 304 289 284 278 293 296 307 314 310 318 311 293 298 311 308 315 312 321 321 322 313 350 11 349 357 0 1 356 3 354 355 357 0 4 10 360 357 349 343 344 345
311 306 318 318 304 283 275 283 291 296 296 303 301 301 308 301 302 300 303 319 318 323 316 308 323 336 344 335 335 349 353 358 354 350 347 350 0 11 6 7 352 350 345 345 341
304 295 316 303 286 284 277 282 285 287 302 298 300 298 297 300 296 299 294 305 324 320 313 315 320 311 319 345 335 327 331 341 336 338 345 342 340 348 355 356 349 347 351 343 342
303 290 291 293 281 280 283 281 279 288 286 293 293 296 296 295 294 294 294 317 325 314 307 318 314 313 314 313 332 333 336 337 335 335 332 333 338 345 341 345 355 352 343 340 341
305 298 299 286 284 281 285 284 282 280 283 286 291 291 292 292 289 294 287 307 307 302 314 310 307 309 307 314 322 328 326 330 327 326 329 328 332 339 0 355 352 343 339 337 339
311 299 304 290 292 292 286 284 285 282 284 283 281 284 287 288 289 285 289 294 309 304 310 307 300 304 304 301 305 309 313 318 318 319 316 325 329 345 347 346 347 346 335 335 335
308 306 294 282 287 287 287 281 281 281 290 279 280 281 283 285 286 289 289 287 293 295 302 302 301 305 304 303 302 304 309 313 313 317 314 320 333 355 355 4 353 340 340 336 333
308 303 296 287 288 285 285 282 281 280 276 286 286 278 282 284 292 299 308 309 303 309 304 305 305 308 306 309 308 309 316 316 316 323 324 326 337 354 350 348 344 347 341 333 336